sat.trackr.live / text

‹ back to catalog

STARLINK-37561

NORAD 69821 · 2026-154C

PAYLOAD ACTIVE UNKNOWN

§ Identity

Operator
Country
US
Launch date
2026-07-05
Launch site
AFETR
Launch vehicle
Mass (kg)
RCS (m²)

Purposes: comms

External: N2YO · Heavens-Above · Gunter

§ Orbital elements

Epoch: 2026-09-19T22:02:03.319008Z

Period
93.85 min
Inclination
53.1589°
Eccentricity
0.0001491
Mean motion
15.34405877 rev/d
Perigee alt
461.7 km
Apogee alt
463.7 km
Semi-major
6,840.8 km
B*
4.1340e-4
RAAN
334.0876°
Arg perigee
251.5635°
Mean anomaly
108.5205°
Rev number
1,315

§ Raw data

STARLINK-375611 69821U 26154C   26262.91809397  .00013619  00000+0  41340-3 0  99922 69821  53.1589 334.0876 0001491 251.5635 108.5205 15.34405877 13157

JSON: /api/v1/satellites/69821 · /tle

For live sub-satellite position, see the globe view (requires WebGL).

§ Visibility from observer

Set your observer location to see the next 7 days of passes ≥ 10°. The values pass through the URL so the page stays shareable.

No JS? Fill the form by hand. The geolocation button needs JavaScript.